Regional Weather Roundup
Issued by NWS

Home | Current Version | Previous Version | Text Only | Print | Product List | Glossary Off
Versions: 1 2 3 4 5 6 7 8 9 10 11 12 13 14 15 16 17 18 19 20 21 22 23 24 25 26 27 28 29 30 31 32 33 34 35 36 37 38 39 40 41 42 43 44 45 46 47 48 49 50

000
ASUS43 KMPX 210101
RWRMN
WEATHER ROUNDUP FOR MINNESOTA
NATIONAL WEATHER SERVICE TWIN CITIES/CHANHASSEN MN
800 PM CDT MON APR 20 2015


NOTE: "FAIR" INDICATES FEW OR NO CLOUDS BELOW 12,000 FEET WITH NO
SIGNIFICANT WEATHER AND/OR OBSTRUCTIONS TO VISIBILITY. N/A MEANS
CURRENT SKY AND/OR WEATHER CONDITIONS ARE NOT AVAILABLE.

MNZ060>063-068>070-210200-
   Twin Cities Metro

CITY           SKY/WX    TMP DP  RH WIND       PRES   REMARKS
TWIN CITIES    CLOUDY    41  29  62 W18G24    29.53R
ST PAUL        CLOUDY    40  29  64 W16G28    29.53R
CRYSTAL        CLOUDY    41  29  62 W15G23    29.52R
LAKEVILLE      CLOUDY    37  30  75 W24G35    29.53S
EDEN PRAIRIE   CLOUDY    41  29  62 W20G31    29.53R
SOUTH ST PAUL  CLOUDY    41  28  60 W17G29    29.53R
LAKE ELMO      RAIN      37  34  87 NW10G21   29.52R
$$
MNZ001>005-007-008-013>017-022>024-027-028-210200-
   Northwest Minnesota

CITY           SKY/WX    TMP DP  RH WIND       PRES   REMARKS
BEMIDJI        FLURRIES  32  29  89 NW17G28   29.49R WCI  21
HALLOCK        LGT SNOW  34  30  86 N24       29.61R WCI  21
ROSEAU         CLOUDY    34  28  80 NW22G28   29.52R HAZE    WCI  22
WARROAD        CLOUDY    32  28  86 NW18G31   29.50R WCI  20
THIEF RVR FALL CLOUDY    34  28  80 NW23G31   29.57R WCI  22
CROOKSTON      CLOUDY    34  34 100 N28G33    29.62R WCI  20
FOSSTON        CLOUDY    30  27  86 NW17G28   29.56R WCI  18
DETROIT LAKES  MIX PCPN  32  32 100 NW23G32   29.59R WCI  19
MOORHEAD       LGT RAIN  36  32  87 NW18      29.63S
PARK RAPIDS    LGT SNOW  38  28  67 NW22G30   29.50S
MAHNOMEN       CLOUDY    33  29  88 NW28G36   29.57R WCI  19
$$
MNZ006-009>011-018-025>026-210200-
   North Central Minnesota

CITY           SKY/WX    TMP DP  RH WIND       PRES   REMARKS
BAUDETTE       LGT SNOW  33  28  81 NW24G35   29.43R WCI  20
FLAG ISLAND    CLOUDY    34  30  86 NW23G32   29.44S FOG     WCI  22
INTL FALLS     LGT SNOW  33  31  92 NW12      29.36S FOG     WCI  24
WASKISH        FLURRIES  34  30  86 W16G24    29.46R WCI  23
BIG FORK       LGT SNOW  34  30  86 W8        29.41R WCI  27
LONGVILLE      FLURRIES  34  30  86 W12G20    29.46S WCI  25
GRAND RAPIDS   CLOUDY    34  27  75 W16G24    29.42S WCI  23
CRANE LAKE     CLOUDY    32  30  93 W5        29.35S WCI  27
ORR            FLURRIES  34  30  86 W13G23    29.33R WCI  25
COOK           LGT SNOW  32  30  93 W9        29.35S WCI  24
$$
MNZ012-019>021-037-210200-
   Northeast Minnesota

CITY           SKY/WX    TMP DP  RH WIND       PRES   REMARKS
DULUTH         LGT SNOW  33  27  78 W15       29.37S WCI  23
ELY            LGT SNOW  30  30 100 W7        29.31S WCI  23
HIBBING        LGT SNOW  33  28  81 W9G17     29.37F WCI  25
EVELETH        LGT SNOW  32  30  93 W10G16    29.37S WCI  24
DULUTH HARBOR  CLOUDY    37  30  75 W16       29.42S
TWO HARBORS    CLOUDY    37  28  70 W13       29.34S
SILVER BAY     CLOUDY    36  28  75 W7        29.32S
GRAND MARAIS     N/A     36  29  75 W8        29.29S
G MARAIS ARPRT CLOUDY    28  25  86 W12G21    29.24S WCI  18
$$
MNZ029>031-032-039>041-046>048-054>057-064-210200-
   West Central Minnesota

CITY           SKY/WX    TMP DP  RH WIND       PRES   REMARKS
FERGUS FALLS   CLOUDY    36  34  93 NW23G30   29.63S
WHEATON        CLOUDY    37  30  75 NW22G29   29.66S
MORRIS         CLOUDY    37  34  87 NW20G30   29.62R
ALEXANDRIA     CLOUDY    36  29  75 NW20G29   29.58R
ELBOW LAKE     CLOUDY    35  33  92 NW18G25   29.61S WCI  25
WADENA         DRIZZLE   32  28  86 NW16G23   29.54S WCI  21
GLENWOOD       MOCLDY    36  30  80 W23G31    29.58S
APPLETON       PTCLDY    41  32  70 NW18G24   29.64S
BENSON         DRIZZLE   37  34  87 N20G29    29.62S
ORTONVILLE     CLOUDY    41  28  60 NW24G30   29.65R
MADISON        CLOUDY    43  27  52 NW20G26   29.65S
WILLMAR        FAIR      37  36  93 NW18G26   29.61S
$$
MNZ033>034-036-042>043-049>051-058-059-210200-
   Central Minnesota

CITY           SKY/WX    TMP DP  RH WIND       PRES   REMARKS
ST CLOUD       CLOUDY    38  29  70 NW17G28   29.53R
SAUK CENTRE    MOCLDY    36  29  77 NW20G32   29.56R
PAYNESVILLE    CLOUDY    35  30  84 SW21G29   29.57S WCI  23
AITKIN         FLURRIES  37  28  70 W6        29.45S
PINE RIVER     FLURRIES  34  28  80 NW10G21   29.52S WCI  26
BRAINERD       LGT SNOW  34  30  85 W12G23    29.49S FOG     WCI  25
STAPLES        LGT SNOW  32  28  86 NW18G25   29.53R WCI  20
LONG PRAIRIE   FLURRIES  34  30  86 W16G23    29.55S WCI  23
LITTLE FALLS   MOCLDY    36  30  80 W16G22    29.52S
LITCHFIELD     CLOUDY    39  34  81 W20G31    29.58R
BUFFALO        MOCLDY    39  30  69 W15G22    29.55S
MAPLE LAKE     CLOUDY    39  32  76 W10G18    29.55R
$$
MNZ037-044-045-052-053-210200-
   East Central Minnesota

CITY           SKY/WX    TMP DP  RH WIND       PRES   REMARKS
PRINCETON      MOCLDY    39  28  65 W18G25    29.51S
MORA           CLOUDY    36  28  75 NW9G16    29.50S
CAMBRIDGE      CLOUDY    39  28  65 W9        29.48S
RUSH CITY      CLOUDY    37  29  75 W12       29.49S
MOOSE LAKE     LGT SNOW  34  30  86 CALM      29.43S
HINCKLEY       CLOUDY    36  30  80 W7G16     29.47S
CLOQUET        LGT SNOW  34  28  80 W13       29.40F WCI  25
MCGREGOR       CLOUDY    34  32  93 W9        29.45S WCI  26
$$
MNZ071>073-080-081-089-090-097-098-210200-
   Southwest Minnesota

CITY           SKY/WX    TMP DP  RH WIND       PRES   REMARKS
MONTEVIDEO     CLOUDY    41  32  70 N13       29.65R
GRANITE FALLS  CLOUDY    40  32  73 NW18G24   29.66S
CANBY          CLOUDY    42  26  52 NW17G24   29.67R
MARSHALL       CLOUDY    43  23  45 NW30G36   29.65R
REDWOOD FALLS  MOCLDY    42  30  62 NW17G31   29.62S
OLIVIA         CLOUDY    37  32  81 NW15G24   29.60F
PIPESTONE      CLEAR     46  25  42 N17G28    29.65S
WINDOM         PTCLDY    41  28  60 W12       29.65S
WORTHINGTON    PTCLDY    43  25  49 NW15      29.66S
JACKSON        MOCLDY    41  27  56 NW13      29.65F
TRACY          CLOUDY    43  28  55 NW21G28   29.65S
SLAYTON        CLOUDY    43  27  53 NW16G23   29.66R
$$
MNZ065>067-074>077-082>085-091>093-210200-
   South Central Minnesota

CITY           SKY/WX    TMP DP  RH WIND       PRES   REMARKS
MANKATO        CLOUDY    41  27  56 NW22G32   29.60S
NEW ULM        MOCLDY    41  28  60 W21G26    29.61S
ST JAMES       MOCLDY    43  27  52 W15G26    29.63F
FAIRMONT       CLOUDY    43  25  49 NW18G25   29.63S
GLENCOE        CLOUDY    40  33  76 W22G30    29.57S
FARIBAULT      CLOUDY    39  34  81 W17       29.58S
OWATONNA       RAIN      39  32  75 W17G24    29.58S
WASECA         CLOUDY    39  32  75 W18G26    29.61S
ALBERT LEA     CLOUDY    41  30  65 W10G24    29.60S
$$
MNZ078>079-086>088-094>096-210200-
   Southeast Minnesota

CITY           SKY/WX    TMP DP  RH WIND       PRES   REMARKS
ROCHESTER      CLOUDY    37  31  78 W18       29.56S
RED WING       CLOUDY    43  28  56 W14G23    29.51S
STANTON        CLOUDY    40  31  67 W22       29.54S
DODGE CENTER   LGT RAIN  37  34  87 NW18G35   29.57R
WINONA         CLOUDY    41  28  60 W9G20     29.54S
AUSTIN         CLOUDY    39  30  70 W13G23    29.59S
PRESTON        CLOUDY    36  32  87 W18G24    29.58R
$$
ABBREVIATIONS USED IN REMARKS
   TC - TEMPERATURES IN CELSIUS
  WCI - WIND CHILL INDEX
   HX - HEAT INDEX
  VSB - VISIBILITY
$$


USA.gov is the U.S. government's official web portal to all federal, state and local government web resources and services.